Total_Precipitation_Accumulation
1.26 1.43 1.90 2.49 2.92 3.43 3.82 3.81 3.52 3.54 3.60 3.62 3.46 3.67 3.88 4.18 4.47 4.39 4.25 4.15 4.04 4.01 4.03 4.06 4.04 3.90 3.81 3.66 3.48 3.38 3.27 3.04 2.84 2.77 2.46 2.09 1.83 1.75 1.71 1.76 1.84 1.84 1.83
1.33 1.59 2.02 2.34 2.76 3.13 3.32 3.61 3.72 3.74 3.52 3.82 4.09 4.31 4.62 4.74 5.08 5.36 5.40 5.22 4.94 4.71 4.50 4.46 4.26 3.97 3.78 3.64 3.45 3.32 3.16 2.88 2.73 2.68 2.64 2.23 1.89 1.58 1.40 1.49 1.50 1.55 1.71
1.59 1.87 2.15 2.30 2.55 2.97 3.24 3.53 3.82 3.93 3.84 4.23 4.73 5.15 5.45 5.45 5.53 5.59 5.61 5.57 5.15 4.78 4.51 4.22 4.09 3.93 3.75 3.58 3.47 3.35 3.22 2.96 2.77 2.64 2.76 2.60 2.25 1.84 1.63 1.48 1.48 1.55 1.62
1.47 1.75 2.03 2.40 2.46 2.78 3.07 3.31 3.65 4.05 4.35 4.75 5.20 5.74 6.03 6.16 6.04 5.72 5.47 5.16 4.78 4.42 4.01 3.79 3.81 3.67 3.46 3.25 3.01 2.88 2.84 2.77 2.64 2.57 2.46 2.43 2.35 2.17 1.93 1.73 1.72 1.75 1.71
1.48 1.61 1.75 2.09 2.33 2.59 2.86 3.13 3.47 3.88 4.51 5.27 5.80 6.18 6.47 6.43 6.00 5.49 4.90 4.45 4.14 3.85 3.57 3.38 3.43 3.33 3.10 2.88 2.62 2.39 2.29 2.26 2.32 2.34 2.31 2.25 2.19 2.03 1.91 1.81 1.73 1.71 1.69
1.62 1.70 1.82 2.10 2.25 2.36 2.61 2.93 3.35 3.66 4.17 4.90 5.54 5.83 6.01 5.94 5.55 4.91 4.35 3.97 3.58 3.24 2.91 2.65 2.56 2.47 2.31 2.20 2.14 2.06 1.99 1.95 2.02 2.06 1.99 1.98 2.00 1.97 1.96 1.89 1.73 1.72 1.79
1.80 1.73 1.74 1.88 2.08 2.17 2.35 2.62 2.94 3.33 3.66 4.05 4.65 4.77 4.81 4.63 4.24 3.98 3.72 3.31 2.92 2.58 2.29 2.07 1.95 1.90 1.86 1.82 1.81 1.79 1.74 1.65 1.66 1.68 1.69 1.70 1.68 1.72 1.86 1.99 1.96 1.86 1.73
1.65 1.62 1.56 1.76 1.98 2.17 2.31 2.42 2.62 2.97 3.28 3.40 3.53 3.50 3.42 3.37 3.20 2.98 2.68 2.40 2.19 2.04 1.92 1.77 1.65 1.60 1.64 1.63 1.66 1.60 1.50 1.42 1.40 1.34 1.37 1.44 1.42 1.55 1.74 1.89 2.07 2.08 1.83
1.45 1.48 1.48 1.58 1.76 2.01 2.12 2.19 2.25 2.39 2.42 2.44 2.48 2.50 2.51 2.39 2.31 2.22 1.99 1.82 1.70 1.58 1.55 1.52 1.48 1.39 1.35 1.30 1.27 1.25 1.24 1.27 1.28 1.22 1.20 1.22 1.25 1.36 1.51 1.66 1.91 2.10 1.99
1.44 1.45 1.48 1.53 1.49 1.54 1.63 1.75 1.86 1.99 1.99 1.92 1.84 1.90 1.90 1.79 1.66 1.54 1.45 1.36 1.28 1.22 1.24 1.19 1.17 1.20 1.20 1.12 1.06 1.04 1.06 1.08 1.13 1.16 1.10 1.09 1.11 1.16 1.23 1.34 1.51 1.74 1.88
1.52 1.42 1.44 1.42 1.32 1.25 1.25 1.36 1.48 1.64 1.71 1.66 1.61 1.63 1.59 1.51 1.39 1.30 1.21 1.15 1.10 1.05 1.02 1.01 0.99 0.98 0.98 0.97 1.00 0.98 0.99 1.05 1.07 1.05 1.05 1.04 1.06 1.10 1.08 1.15 1.26 1.41 1.59
1.49 1.38 1.35 1.39 1.33 1.25 1.17 1.23 1.29 1.25 1.30 1.33 1.44 1.53 1.43 1.37 1.30 1.24 1.17 1.11 0.99 0.93 0.92 0.94 0.90 0.82 0.81 0.88 0.95 0.97 0.95 1.02 1.02 1.01 1.04 1.02 1.02 1.04 1.04 1.09 1.15 1.28 1.46
1.64 1.46 1.33 1.31 1.31 1.22 1.16 1.17 1.20 1.12 1.09 1.07 1.09 1.21 1.25 1.21 1.18 1.07 0.99 0.95 0.91 0.90 0.88 0.85 0.83 0.81 0.77 0.80 0.81 0.82 0.83 0.89 0.95 0.97 1.02 1.03 1.05 1.02 1.01 1.05 1.11 1.23 1.36
1.63 1.43 1.34 1.28 1.21 1.15 1.14 1.12 1.06 0.96 0.93 0.92 0.97 1.04 1.06 1.07 1.09 1.01 0.92 0.88 0.84 0.82 0.80 0.75 0.74 0.80 0.79 0.71 0.66 0.68 0.72 0.80 0.82 0.83 0.94 1.00 1.02 1.00 1.05 1.08 1.13 1.21 1.38
1.57 1.51 1.39 1.27 1.11 1.01 1.01 0.98 0.95 0.90 0.86 0.88 0.94 1.03 0.97 0.93 1.00 1.05 0.94 0.84 0.80 0.77 0.78 0.72 0.68 0.73 0.72 0.65 0.65 0.65 0.66 0.71 0.71 0.73 0.80 0.85 0.86 0.85 0.91 0.93 1.03 1.17 1.33
1.76 1.69 1.56 1.41 1.21 1.07 1.01 0.99 0.95 0.84 0.78 0.82 0.94 1.01 1.00 0.98 1.02 1.08 1.02 0.94 0.88 0.85 0.81 0.76 0.71 0.71 0.65 0.65 0.60 0.58 0.61 0.67 0.73 0.79 0.79 0.74 0.73 0.70 0.67 0.73 0.84 1.01 1.22
1.80 1.69 1.61 1.46 1.29 1.23 1.10 1.07 1.02 0.89 0.87 0.88 0.89 0.96 1.01 1.06 1.09 1.07 1.04 1.00 0.98 0.96 0.86 0.77 0.74 0.71 0.64 0.56 0.47 0.46 0.52 0.67 0.77 0.84 0.81 0.70 0.66 0.75 0.75 0.74 0.77 0.89 1.03
1.96 1.90 1.68 1.50 1.32 1.18 1.08 1.02 0.97 0.90 0.92 0.92 0.88 0.85 0.88 0.91 0.91 0.98 1.03 1.00 0.96 0.91 0.85 0.78 0.73 0.68 0.52 0.45 0.43 0.45 0.48 0.58 0.63 0.67 0.73 0.82 0.84 0.76 0.76 0.74 0.85 0.95 1.06
1.86 1.82 1.66 1.54 1.41 1.24 1.11 1.03 0.99 0.94 0.90 0.86 0.81 0.74 0.71 0.74 0.75 0.83 0.94 1.00 0.97 0.87 0.79 0.72 0.69 0.64 0.52 0.47 0.45 0.46 0.51 0.57 0.54 0.51 0.55 0.61 0.64 0.65 0.72 0.82 0.97 1.02 1.13
1.40 1.39 1.35 1.30 1.23 1.11 1.01 1.01 1.00 0.92 0.83 0.75 0.68 0.63 0.62 0.67 0.68 0.74 0.85 0.91 0.92 0.81 0.67 0.60 0.60 0.57 0.55 0.49 0.42 0.41 0.45 0.53 0.51 0.53 0.60 0.59 0.51 0.55 0.68 0.86 1.05 1.19 1.22
1.18 1.12 1.10 1.12 1.09 0.99 0.97 1.00 0.96 0.89 0.72 0.60 0.58 0.60 0.65 0.68 0.67 0.74 0.81 0.79 0.73 0.72 0.65 0.60 0.58 0.52 0.44 0.39 0.34 0.35 0.39 0.46 0.51 0.57 0.66 0.67 0.58 0.52 0.59 0.78 0.97 1.13 1.17
1.23 1.13 1.08 1.03 0.95 0.91 0.96 0.99 0.91 0.74 0.60 0.58 0.61 0.65 0.65 0.61 0.60 0.71 0.78 0.71 0.69 0.68 0.66 0.64 0.58 0.48 0.39 0.33 0.28 0.26 0.28 0.32 0.51 0.66 0.65 0.65 0.62 0.59 0.65 0.79 0.95 1.08 1.25
1.17 1.12 1.03 0.93 0.82 0.77 0.81 0.85 0.72 0.55 0.51 0.56 0.65 0.66 0.62 0.68 0.68 0.65 0.65 0.65 0.67 0.59 0.54 0.55 0.52 0.48 0.42 0.35 0.27 0.23 0.24 0.30 0.43 0.59 0.63 0.60 0.58 0.67 0.88 0.99 1.08 1.23 1.44
0.97 0.89 0.84 0.79 0.69 0.61 0.59 0.58 0.48 0.47 0.52 0.60 0.62 0.60 0.64 0.74 0.72 0.63 0.53 0.51 0.51 0.48 0.44 0.45 0.44 0.46 0.44 0.34 0.30 0.30 0.31 0.34 0.41 0.53 0.66 0.71 0.73 0.90 1.10 1.24 1.32 1.42 1.47
0.78 0.70 0.68 0.64 0.53 0.49 0.45 0.41 0.38 0.42 0.52 0.55 0.58 0.59 0.60 0.64 0.67 0.58 0.45 0.42 0.37 0.30 0.30 0.32 0.33 0.40 0.38 0.27 0.26 0.29 0.32 0.36 0.40 0.47 0.68 0.83 0.87 1.00 1.15 1.28 1.35 1.39 1.39
0.65 0.62 0.58 0.54 0.47 0.45 0.42 0.39 0.35 0.38 0.49 0.53 0.51 0.46 0.48 0.50 0.50 0.51 0.45 0.30 0.18 0.14 0.13 0.14 0.18 0.21 0.23 0.20 0.19 0.22 0.28 0.33 0.41 0.55 0.83 0.92 0.91 0.97 1.06 1.17 1.27 1.26 1.23